Regional Weather Roundup
Issued by NWS Green Bay, WI

Home | Current Version | Previous Version | Graphics & Text | Print | Product List | Glossary Off
Versions: 1 2 3 4 5 6 7 8 9 10 11 12 13 14 15 16 17 18 19 20 21 22 23 24 25 26 27 28 29 30 31 32 33 34 35 36 37 38 39 40 41 42 43 44 45 46 47 48 49 50

813
ASUS43 KGRB 191600
RWRGRB

NORTH-CENTRAL AND NORTHEAST WISCONSIN REGIONAL WEATHER ROUNDUP
NATIONAL WEATHER SERVICE GREEN BAY WI
1000 AM CST SUN NOV 19 2017

WIZ005-009-010>012-018-019-191700-
NORTH CENTRAL WISCONSIN

CITY           SKY/WX    TMP DP  RH WIND       PRES   REMARKS
IRONWOOD       FLURRIES N/A N/A N/A W15       29.94R
MANITOWISH WTR NOT AVBL
ARBOR VITAE    NOT AVBL
EAGLE RIVER    LGT SNOW  16  10  77 W10       29.90R WCI   3
LAND O LAKES   NOT AVBL
RHINELANDER    CLOUDY   N/A N/A N/A W12       29.93R
PHILLIPS       SUNNY     17   9  68 W8        29.95S WCI   7
ANTIGO         NOT AVBL
TOMAHAWK       NOT AVBL
MERRILL        SUNNY     20  10  65 W9        29.97R WCI   9
$$

WIZ013-073-191700-
NORTHEAST WISCONSIN

CITY           SKY/WX    TMP DP  RH WIND       PRES   REMARKS
IRON MOUNTAIN  CLOUDY    22   9  57 W17G23    29.90R WCI   8
MARINETTE      FLURRIES  24  13  62 NW10G18   29.96R
$$

WIZ017-030-035>037-045-191700-
CENTRAL WISCONSIN

CITY           SKY/WX    TMP DP  RH WIND       PRES   REMARKS
MEDFORD        NOT AVBL
WAUSAU         SUNNY     20   9  62 W15       29.97R WCI   6
MOSINEE        MOSUNNY   21  12  68 W14G21    29.98R WCI   8
MARSHFIELD     SUNNY     21  10  62 W13       29.99R WCI   9
WISC RAPIDS    SUNNY     23  10  57 NW15      30.03R
STEVENS POINT  NOT AVBL
WAUPACA        NOT AVBL
SHAWANO        SUNNY     26  11  53 W8        29.97R
CLINTONVILLE   NOT AVBL
WAUTOMA        SUNNY     24  11  57 W13       30.03R
$$

WIZ038-039-048-051-191700-
FOX VALLEY

CITY           SKY/WX    TMP DP  RH WIND       PRES   REMARKS
NWS GREEN BAY  MOSUNNY   26  15  63 W13       29.97S
APPLETON       MOSUNNY   25  10  54 NW15      29.95F
OSHKOSH        SUNNY     25  14  63 W13       29.98R
FOND DU LAC    MOSUNNY   26  13  57 W16       29.99R
$$

WIZ022-050-052-191700-
EAST CENTRAL WISCONSIN

CITY           SKY/WX    TMP DP  RH WIND       PRES   REMARKS
EPHRAIM        CLOUDY    24  12  60 NW7       29.91S
WASHINGTON ISL NOT AVBL
STURGEON BAY   FLURRIES  24  14  65 W14       29.95R
MANITOWOC      CLOUDY    27  16  63 NW13      29.98R
SHEBOYGAN      PTSUNNY   26  16  65 NW13G23   29.98R
$$

LMZ563-521-522-541>543-191700-
LAKESHORE

STATION/POSITION TIME  TEMP    WIND        PRES    VSBY  WAVE
                       AIR SEA DIR/SP/G                  HT/PER
                 (UTC) (F)     (DEG/KT/KT) (MB)    (MI)  (FT/S)
SHEBOYGAN LKSHOR 1500   26     280/ 18/ 21 1015.4R
KEWAUNEE LKSHORE 1530   26     280/ 13/ 18 1013.5R
NORTHPORT PIER   1540   26     310/ 17/ 25 1013.2R
N MID LAKE BUOY  1450   27 48  310/ 21/ 25 1012.5R         4/ 5
MENOMINEE LKSHOR 1530   24     280/ 11/ 17 1013.7R
$$




USA.gov is the U.S. government's official web portal to all federal, state and local government web resources and services.